La Coruna Airport, Spain

11:49 AM CEST on June 26, 2017 (GMT +0200)
A Coruna

Weather History for LECO - December, 2012

Change the Weather History Date:

Thursday, December 27, 2012

  Actual Average Record
Temperature  
Mean Temperature 56 °F -  
Max Temperature 59 °F 54 °F 66 °F (2015)
Min Temperature 53 °F 42 °F 32 °F (2007)
Degree Days  
Heating Degree Days 9    
Growing Degree Days 6 (Base 50)    
Moisture  
Dew Point 52 °F    
Average Humidity 86    
Maximum Humidity 94    
Minimum Humidity 77    
Precipitation  
Precipitation 0.00 in - - ()
Sea Level Pressure  
Sea Level Pressure 30.41 in    
Wind  
Wind Speed 7 mph ()    
Max Wind Speed 12 mph    
Max Gust Speed -    
Visibility 6.2 miles    
Events      
Averages and records for this station are not official NWS values.
T = Trace of Precipitation, MM = Missing Value Source: Averaged Metar Reports

Daily Weather History Graph

Daily Weather History Graph

Search for Another Location

Airport or City:

Trip Planner

Search our weather history database for the weather conditions in past years. The results will help you decide how hot, cold, wet, or windy it might be!

Date:

Astronomy

Dec. 27, 2012 Rise Set
Actual Time 9:05 AM CET 6:04 PM CET
Civil Twilight 8:32 AM CET 6:37 PM CET
Nautical Twilight 7:56 AM CET 7:13 PM CET
Astronomical Twilight 7:21 AM CET 7:47 PM CET
Moon 5:37 PM CET (12/27) 8:04 AM CET (12/27)
Length of Visible Light 10h 04m
Length of Day
8h 59m
Waxing Gibbous, 99% of the Moon is Illuminated
Dec 27
Waxing Gibbous
Dec 28
Full
Jan 5
Last Quarter
Jan 11
New
Jan 19
First Quarter

Hourly Weather History & Observations

Time (CET) Temp. Dew Point Humidity Pressure Visibility Wind Dir Wind Speed Gust Speed Precip Events Conditions
12:00 AM 53.6 °F 50.0 °F 88% 30.36 in 6.2 mi SSW 11.5 mph - N/A   Mostly Cloudy
12:30 AM 53.6 °F 50.0 °F 88% 30.36 in 6.2 mi SSW 9.2 mph - N/A   Mostly Cloudy
1:00 AM 55.4 °F 50.0 °F 82% 30.36 in 6.2 mi SSW 11.5 mph - N/A   Scattered Clouds
5:30 AM 55.4 °F 51.8 °F 88% 30.36 in 6.2 mi SSW 9.2 mph - N/A   Mostly Cloudy
6:00 AM 55.4 °F 51.8 °F 88% 30.36 in 6.2 mi SSW 6.9 mph - N/A   Mostly Cloudy
6:30 AM 55.4 °F 51.8 °F 88% 30.36 in 6.2 mi Variable 4.6 mph - N/A   Mostly Cloudy
7:00 AM 55.4 °F 51.8 °F 88% 30.36 in 6.2 mi SSW 9.2 mph - N/A   Partly Cloudy
7:30 AM 57.2 °F 51.8 °F 82% 30.36 in 6.2 mi SW 9.2 mph - N/A   Partly Cloudy
8:00 AM 57.2 °F 51.8 °F 82% 30.36 in 6.2 mi SW 9.2 mph - N/A   Scattered Clouds
8:30 AM 57.2 °F 51.8 °F 82% 30.39 in 6.2 mi WSW 10.4 mph - N/A   Scattered Clouds
9:00 AM 57.2 °F 51.8 °F 82% 30.39 in 6.2 mi SW 8.1 mph - N/A   Mostly Cloudy
9:30 AM 57.2 °F 51.8 °F 82% 30.39 in 6.2 mi WSW 11.5 mph - N/A   Mostly Cloudy
10:00 AM 57.2 °F 51.8 °F 82% 30.39 in 6.2 mi SSW 4.6 mph - N/A   Mostly Cloudy
10:30 AM 57.2 °F 51.8 °F 82% 30.42 in 6.2 mi SSW 4.6 mph - N/A   Mostly Cloudy
11:00 AM 57.2 °F 51.8 °F 82% 30.42 in 6.2 mi SW 8.1 mph - N/A   Mostly Cloudy
11:30 AM 59.0 °F 51.8 °F 77% 30.45 in 6.2 mi SW 5.8 mph - N/A   Mostly Cloudy
12:00 PM 59.0 °F 53.6 °F 82% 30.45 in 6.2 mi WSW 8.1 mph - N/A   Mostly Cloudy
12:30 PM 59.0 °F 53.6 °F 82% 30.45 in 6.2 mi SW 6.9 mph - N/A   Mostly Cloudy
1:30 PM 59.0 °F 53.6 °F 82% 30.42 in 6.2 mi West 10.4 mph - N/A   Mostly Cloudy
2:00 PM 57.2 °F 55.4 °F 94% 30.42 in 6.2 mi Variable 2.3 mph - N/A   Light Drizzle
2:30 PM 57.2 °F 55.4 °F 94% 30.42 in 6.2 mi Variable 2.3 mph - N/A   Mostly Cloudy
3:00 PM 57.2 °F 55.4 °F 94% 30.42 in 6.2 mi Calm Calm - N/A   Light Drizzle
3:30 PM 57.2 °F 55.4 °F 94% 30.42 in 6.2 mi Variable 1.2 mph - N/A   Mostly Cloudy
4:00 PM 57.2 °F 55.4 °F 94% 30.42 in 6.2 mi Calm Calm - N/A   Mostly Cloudy
4:30 PM 57.2 °F 55.4 °F 94% 30.42 in 6.2 mi Variable 2.3 mph - N/A   Mostly Cloudy
5:00 PM 59.0 °F 53.6 °F 82% 30.42 in 6.2 mi SSW 3.5 mph - N/A   Mostly Cloudy
5:30 PM 57.2 °F 53.6 °F 88% 30.42 in 6.2 mi SSW 5.8 mph - N/A   Mostly Cloudy
6:00 PM 57.2 °F 51.8 °F 82% 30.42 in 6.2 mi SSW 4.6 mph - N/A   Mostly Cloudy
6:30 PM 57.2 °F 51.8 °F 82% 30.42 in 6.2 mi SSW 6.9 mph - N/A   Mostly Cloudy
7:00 PM 57.2 °F 51.8 °F 82% 30.45 in 6.2 mi SSW 3.5 mph - N/A   Mostly Cloudy
7:30 PM 57.2 °F 51.8 °F 82% 30.45 in 6.2 mi South 5.8 mph - N/A   Mostly Cloudy
8:00 PM 57.2 °F 51.8 °F 82% 30.45 in 6.2 mi Variable 2.3 mph - N/A   Mostly Cloudy
8:30 PM 55.4 °F 51.8 °F 88% 30.45 in 6.2 mi SSE 4.6 mph - N/A   Mostly Cloudy
9:00 PM 55.4 °F 51.8 °F 88% 30.45 in 6.2 mi South 8.1 mph - N/A   Mostly Cloudy
9:30 PM 57.2 °F 51.8 °F 82% 30.45 in 6.2 mi South 8.1 mph - N/A   Mostly Cloudy
10:00 PM 55.4 °F 51.8 °F 88% 30.45 in 6.2 mi South 5.8 mph - N/A   Mostly Cloudy
10:30 PM 55.4 °F 51.8 °F 88% 30.45 in 6.2 mi South 5.8 mph - N/A   Mostly Cloudy
11:00 PM 55.4 °F 51.8 °F 88% 30.48 in 6.2 mi South 5.8 mph - N/A   Mostly Cloudy
11:30 PM 55.4 °F 51.8 °F 88% 30.48 in 6.2 mi South 6.9 mph - N/A   Mostly Cloudy